CW4535 Weather Reports


Display with metric or nautical units.
time (UTC)temp
F
wind
direction
speed
MPH
gust
MPH
rain 1hr
in
rain 24hr
in
rain mn
in
humidity
%
barometer
mb
20260505073003 68 78 2.0 8.0 0.00 0.00 0.00 80 1001.9
20260505072003 68 70 0.0 4.0 0.00 0.00 0.00 79 1002.3
20260505071221 68 75 0.0 6.0 0.00 0.00 0.00 79 1002.3
20260505070004 68 79 0.0 2.0 0.00 0.00 0.00 79 1002.3
20260505065218 68 0 0.0 0.0 0.00 0.00 0.00 78 1002.6
20260505064219 69 0 0.0 0.0 0.00 0.00 0.00 77 1002.6
20260505063003 69 0 0.0 0.0 0.00 0.00 0.00 77 1002.9
20260505062003 69 0 0.0 0.0 0.00 0.00 0.00 77 1002.9
20260505061003 69 0 0.0 0.0 0.00 0.00 0.00 76 1002.7
20260505060004 69 0 0.0 0.0 0.00 0.00 0.00 76 1002.4
20260505055003 69 0 0.0 0.0 0.00 0.00 0.00 75 1002.2
20260505054003 69 124 0.0 8.0 0.00 0.00 0.00 75 1002.0
20260505053003 69 152 1.0 3.0 0.00 0.00 0.00 75 1001.8
20260505052221 70 143 1.0 6.0 0.00 0.00 0.00 74 1001.9
20260505051003 70 138 2.0 8.0 0.00 0.00 0.00 74 1001.6
20260505041003 70 134 3.0 10.0 0.00 0.00 0.00 70 1001.9
20260505040004 71 130 2.0 9.0 0.00 0.00 0.00 69 1001.9
20260505035219 71 141 2.0 11.0 0.00 0.00 0.00 69 1001.9
20260505034003 71 139 2.0 6.0 0.00 0.00 0.00 69 1002.4
20260505033003 71 136 2.0 12.0 0.00 0.00 0.00 68 1002.4
20260505032003 71 128 2.0 11.0 0.00 0.00 0.00 67 1002.5
20260505031003 71 141 1.0 5.0 0.00 0.00 0.00 66 1002.5
20260505030003 72 135 3.0 11.0 0.00 0.00 0.00 65 1002.7
20260505025004 72 132 1.0 10.0 0.00 0.00 0.00 65 1002.8
20260505024003 72 132 1.0 13.0 0.00 0.00 0.00 65 1002.9
20260505023003 72 135 1.0 7.0 0.00 0.00 0.00 65 1003.0
20260505022003 73 139 2.0 8.0 0.00 0.00 0.00 64 1002.8
20260505021003 73 142 1.0 7.0 0.00 0.00 0.00 64 1002.6
20260505020220 73 145 2.0 7.0 0.00 0.00 0.00 64 1002.6
20260505015003 74 136 2.0 11.0 0.00 0.00 0.00 63 1002.6
20260505014003 74 133 2.0 12.0 0.00 0.00 0.00 64 1002.6
20260505013003 74 146 2.0 10.0 0.00 0.00 0.00 64 1002.6
20260505012003 74 129 1.0 8.0 0.00 0.00 0.00 63 1002.5
20260505011003 74 132 1.0 7.0 0.00 0.00 0.00 63 1002.5
20260505005004 76 143 1.0 7.0 0.00 0.00 0.00 62 1002.5
20260505004003 76 140 1.0 6.0 0.00 0.00 0.00 62 1002.6
20260505003003 76 152 1.0 9.0 0.00 0.00 0.00 61 1002.6
20260505002003 77 152 2.0 9.0 0.00 0.00 0.00 60 1002.6
20260505001003 77 151 3.0 13.0 0.00 0.00 0.00 60 1002.7
20260505000003 77 148 2.0 12.0 0.00 0.00 0.00 60 1002.9
20260504235003 78 158 2.0 12.0 0.00 0.00 0.00 59 1002.8
20260504234003 78 169 2.0 10.0 0.00 0.00 0.00 59 1002.7
20260504233003 78 156 2.0 10.0 0.00 0.00 0.00 59 1002.9
20260504232003 78 149 3.0 8.0 0.00 0.00 0.00 59 1002.9
20260504231221 78 156 3.0 12.0 0.00 0.00 0.00 58 1002.9
20260504230003 79 167 2.0 13.0 0.00 0.00 0.00 57 1002.9
20260504225218 79 158 2.0 9.0 0.00 0.00 0.00 57 1002.9
20260504224004 79 167 2.0 8.0 0.00 0.00 0.00 58 1003.0
20260504223003 80 165 2.0 9.0 0.00 0.00 0.00 57 1002.8
20260504222003 80 168 2.0 7.0 0.00 0.00 0.00 56 1002.8
20260504221004 80 152 2.0 10.0 0.00 0.00 0.00 57 1002.7
20260504220003 80 155 2.0 10.0 0.00 0.00 0.00 57 1002.8
20260504215003 80 162 2.0 9.0 0.00 0.00 0.00 57 1003.0
20260504214003 80 155 2.0 9.0 0.00 0.00 0.00 56 1003.0
20260504213003 81 166 3.0 15.0 0.00 0.00 0.00 56 1003.0
20260504212003 81 176 2.0 11.0 0.00 0.00 0.00 56 1003.2
20260504211004 81 175 3.0 11.0 0.00 0.00 0.00 54 1003.1
20260504210004 81 178 3.0 10.0 0.00 0.00 0.00 53 1003.2
20260504205003 81 148 3.0 16.0 0.00 0.00 0.00 53 1003.2
20260504204003 81 149 3.0 15.0 0.00 0.00 0.00 53 1003.4
20260504203003 81 182 4.0 13.0 0.00 0.00 0.00 53 1003.7
20260504202003 82 158 3.0 12.0 0.00 0.00 0.00 53 1003.8
20260504201003 82 153 3.0 14.0 0.00 0.00 0.00 53 1003.9
20260504200003 83 158 4.0 16.0 0.00 0.00 0.00 52 1004.1
20260504195003 82 162 4.0 19.0 0.00 0.00 0.00 52 1004.2
20260504194003 82 172 4.0 15.0 0.00 0.00 0.00 51 1004.3
20260504193003 82 155 4.0 18.0 0.00 0.00 0.00 53 1004.4
20260504192003 82 164 4.0 15.0 0.00 0.00 0.00 52 1004.4
20260504191003 83 148 4.0 14.0 0.00 0.00 0.00 52 1004.4
20260504190003 83 161 3.0 15.0 0.00 0.00 0.00 53 1004.4
20260504185003 83 167 4.0 14.0 0.00 0.00 0.00 52 1004.7
20260504184221 84 164 3.0 17.0 0.00 0.00 0.00 51 1004.7
20260504183003 83 175 4.0 19.0 0.00 0.00 0.00 52 1004.9
20260504182218 82 171 4.0 16.0 0.00 0.00 0.00 52 1004.9
20260504181003 82 161 4.0 14.0 0.00 0.00 0.00 52 1005.2
20260504180003 82 162 3.0 16.0 0.00 0.00 0.00 52 1005.2
20260504175003 82 151 4.0 16.0 0.00 0.00 0.00 52 1005.4
20260504174003 82 179 3.0 15.0 0.00 0.00 0.00 53 1005.6
20260504173003 82 168 4.0 13.0 0.00 0.00 0.00 51 1005.8
20260504172003 81 160 3.0 15.0 0.00 0.00 0.00 50 1005.8
20260504171003 81 171 4.0 14.0 0.00 0.00 0.00 51 1005.9
20260504170221 81 172 4.0 14.0 0.00 0.00 0.00 52 1005.8
20260504151003 75 165 3.0 12.0 0.00 0.00 0.00 54 1006.8
20260504141003 70 183 4.0 16.0 0.00 0.00 0.00 59 1007.4
20260504100220 65 169 3.0 10.0 0.00 0.00 0.00 59 1008.2
20260504082003 67 174 4.0 16.0 0.00 0.00 0.00 55 1008.5
20260504081004 67 174 3.0 11.0 0.00 0.00 0.00 54 1008.7